Flag for Germany Weather past 2 weeks in Emsdetten, North Rhine-Westphalia, Germany

Now
57 °F

Sunny.


Feels Like: 57 °F
Forecast: 50 / 58 °F
Wind: 3 mph from Southwest

Location: Muenster / Osnabrueck

Current Time: Sep 23, 2014 at 7:12:36 PM

Latest Report: Sep 23, 2014 at 6:50 PM


Visibility: 10 mi

Pressure: 30.07 "Hg

Humidity: 72%

Dew point: 48 °F

Location of EmsdettenLocation

Historic Weather in Emsdetten — Graph

°F

Emsdetten temperature yesterday

Maximum temperature yesterday: 63 °F (at 4:50 PM)
Minimum temperature yesterday: 46 °F (at 11:50 PM)
Average temperature yesterday: 55 °F

Past Weeks' High & Low Weather Summary

 TemperatureHumidityPressure
High79 °F (Sep 18, 2:20 PM)100% (Sep 9, 12:20 AM)30.24 "Hg (Sep 9, 12:20 AM)
Low41 °F (Sep 23, 5:50 AM)45% (Sep 22, 5:20 PM)29.83 "Hg (Sep 19, 4:20 AM)
Average61 °F83%30.04 "Hg
* Reported Sep 8 5:20 PM — Sep 23 5:50 PM, Emsdetten, Weather by CustomWeather, © 2014

Note: Actual official high and low records may vary slightly from our data, if they occured in-between our weather recording intervals... More about our weather records

Advertising

Emsdetten weather history for previous 24 hours

 ConditionsComfort  
Time TempWeatherWind HumidityBarometerVisibility
5:50 PM
Sep 23
61 °FScattered clouds.6 mph55%30.07 "HgN/A
5:20 PM61 °FScattered clouds.7 mph59%30.09 "HgN/A
4:50 PM61 °FScattered clouds.6 mph55%30.09 "HgN/A
4:20 PM61 °FScattered clouds.9 mph52%30.09 "HgN/A
3:50 PM63 °FScattered clouds.9 mph49%30.12 "HgN/A
3:20 PM63 °FScattered clouds.10 mph52%30.12 "HgN/A
2:50 PM61 °FScattered clouds.8 mph59%30.12 "HgN/A
2:20 PM59 °FScattered clouds.7 mph63%30.12 "HgN/A
1:50 PM59 °FScattered clouds.8 mph63%30.12 "HgN/A
1:20 PM61 °FScattered clouds.3 mph52%30.12 "HgN/A
12:20 PM59 °FScattered clouds.5 mph68%30.15 "HgN/A
11:50 AM59 °FScattered clouds.5 mph68%30.15 "HgN/A
11:20 AM57 °FScattered clouds.3 mph72%30.15 "HgN/A
10:50 AM54 °FScattered clouds.3 mph77%30.15 "HgN/A
10:20 AM52 °FScattered clouds.2 mph82%30.15 "HgN/A
9:50 AM50 °FPartly sunny.2 mph82%30.15 "HgN/A
9:20 AM48 °FPartly sunny.2 mph87%30.15 "HgN/A
8:50 AM46 °FPartly sunny.1 mph93%30.15 "HgN/A
8:20 AM45 °FFog.2 mph100%30.15 "Hg6 mi
7:50 AM43 °FFog.2 mph100%30.15 "Hg6 mi
7:20 AM43 °FFog.2 mph100%30.15 "Hg5 mi
6:50 AM43 °FFog.1 mph100%30.15 "Hg6 mi
6:20 AM41 °FQuite cool.1 mph100%30.15 "Hg6 mi
5:50 AM41 °FQuite cool.1 mph100%30.12 "HgN/A
5:20 AM43 °FQuite cool.1 mph100%30.12 "HgN/A
4:50 AM43 °FQuite cool.1 mph100%30.12 "HgN/A
4:20 AM43 °FFog.1 mph100%30.12 "HgN/A
3:50 AM45 °FClear.2 mph100%30.12 "Hg10 mi
3:20 AM46 °FClear.3 mph93%30.15 "Hg10 mi
2:50 AM46 °FPassing clouds.3 mph93%30.12 "HgN/A
2:20 AM48 °FPassing clouds.3 mph87%30.15 "HgN/A
1:50 AM48 °FPassing clouds.3 mph87%30.15 "HgN/A
1:20 AM48 °FPassing clouds.3 mph87%30.15 "HgN/A
12:50 AM50 °FPassing clouds.5 mph82%30.15 "HgN/A
12:20 AM48 °FPassing clouds.5 mph87%30.15 "HgN/A
11:50 PM
Sep 22
46 °FPassing clouds.5 mph87%30.15 "HgN/A
11:20 PM48 °FPassing clouds.6 mph87%30.15 "HgN/A
10:50 PM50 °FPassing clouds.5 mph82%30.15 "HgN/A
10:20 PM50 °FPassing clouds.6 mph82%30.12 "HgN/A
9:50 PM50 °FClear.6 mph76%30.12 "Hg10 mi
9:20 PM50 °FClear.7 mph76%30.12 "Hg10 mi
8:50 PM52 °FClear.5 mph72%30.12 "Hg10 mi
8:20 PM54 °FSunny.6 mph67%30.12 "Hg10 mi
7:50 PM55 °FSunny.5 mph63%30.12 "Hg10 mi
7:20 PM57 °FPassing clouds.7 mph59%30.09 "HgN/A
Weather by CustomWeather, © 2014

See weather overviewHow to use our weather pages